Regional Weather Roundup
Issued by NWS

Current Version | Previous Version | Text Only | Print | Product List | Glossary On
Versions: 1 2 3 4 5 6 7 8 9 10 11 12 13 14 15 16 17 18 19 20 21 22 23 24 25 26 27 28 29 30 31 32 33 34 35 36 37 38 39 40 41 42 43 44 45 46 47 48 49 50
000
ASUS43 KMKX 230700
RWRWI

WISCONSIN REGIONAL WEATHER ROUNDUP
NATIONAL WEATHER SERVICE MILWAUKEE/SULLIVAN WI
200 AM CDT THU MAR 23 2017

NOTE: "FAIR" INDICATES FEW OR NO CLOUDS BELOW 12,000 FEET WITH NO
SIGNIFICANT WEATHER AND/OR OBSTRUCTIONS TO VISIBILITY.

WIZ001-002-006>008-014>016-023>028-230800-
NORTHWEST WISCONSIN

CITY           SKY/WX    TMP DP  RH WIND       PRES   REMARKS
SUPERIOR ARPT  CLOUDY    32  19  60 CALM      30.28F
ASHLAND        CLOUDY    28  21  75 CALM      30.31F
HAYWARD        LGT SNOW  31  21  66 S9        30.29F WCI  23
SIREN          CLOUDY    34  12  40 SE7       30.27F WCI  28
CUMBERLAND     CLOUDY    32  14  47 SE9       30.28S WCI  24
RICE LAKE      CLOUDY    33  15  47 CALM      30.30F
CHETEK         CLOUDY    33  17  52 SE9       30.30F WCI  25
LADYSMITH      CLOUDY    33  17  52 SE8       30.33F WCI  25
EAU CLAIRE     NOT AVBL
MENOMONIE      CLOUDY    34  16  47 SE9       30.30F WCI  27
NEW RICHMOND   CLOUDY    35  11  38 SE7       30.28F WCI  29
OSCEOLA        CLOUDY    36  13  39 SE8       30.30S WCI  29
$$

WIZ003>005-009-010-017-018-230800-
NORTH CENTRAL WISCONSIN

CITY           SKY/WX    TMP DP  RH WIND       PRES   REMARKS
MANITOWISH WTR CLOUDY    27  12  53 S8G17     30.32F WCI  19
ARBOR VITAE    CLOUDY    29  15  55 S9        30.32F WCI  21
WOODRUFF       CLOUDY    29  15  55 S9        30.32F WCI  21
RHINELANDER    CLOUDY    28  15  58 S6        30.35F WCI  22
EAGLE RIVER    CLOUDY    25  10  54 S6        30.34F WCI  18
LAND O LAKES   CLOUDY    27  12  52 S5        30.36S WCI  22
PHILLIPS       CLOUDY    29  15  56 S8        30.32S WCI  21
TOMAHAWK       CLOUDY    27  15  61 SE5       30.35F WCI  22
MEDFORD        CLOUDY    28  17  64 SE10      30.34S WCI  19
MERRILL        CLOUDY    28  18  67 SE7       30.37F WCI  20
$$

WIZ029-030-035-036-043>047-230800-
CENTRAL WISCONSIN

CITY           SKY/WX    TMP DP  RH WIND       PRES   REMARKS
WAUSAU         CLOUDY    27  19  72 SE10      30.37F WCI  17
MOSINEE        CLOUDY    27  21  80 SE12      30.39S WCI  16
MARSHFIELD     CLOUDY    29  19  66 SE10      30.36R WCI  20
STEVENS POINT  PTCLDY    24  19  79 SE5       30.41S WCI  18
WAUPACA        CLOUDY    27  22  82 E5        30.43S WCI  21
WAUTOMA        MOCLDY    24  20  84 SE5       30.43R WCI  18
WISC RAPIDS    CLOUDY    28  20  71 SE8       30.41R WCI  20
CAMP DOUGLAS   NOT AVBL
$$

WIZ011>013-019>022-031-037>040-048>050-230800-
NORTHEAST WISCONSIN

CITY           SKY/WX    TMP DP  RH WIND       PRES   REMARKS
ANTIGO         CLOUDY    23  19  85 S9        30.38F WCI  13
SHAWANO        CLOUDY    25  20  80 CALM      30.43F
OCONTO         PTCLDY    24  18  78 S3        30.45F
STURGEON BAY   CLEAR     25  19  78 SE6       30.45F WCI  18
GREEN BAY      CLOUDY    24  20  84 SE6       30.44F WCI  17
MANITOWOC      NOT AVBL
APPLETON       CLOUDY    25  18  74 SE9       30.41F WCI  15
CLINTONVILLE   CLOUDY    25  19  80 CALM      30.43F
OSHKOSH        CLOUDY    25  19  78 SE7       30.42F WCI  17
$$

WIZ032>034-041-042-053>061-230800-
SOUTHWEST WISCONSIN

CITY           SKY/WX    TMP DP  RH WIND       PRES   REMARKS
LA CROSSE      CLOUDY    38  19  46 SE14      30.33F WCI  30
SPARTA         CLOUDY    34  19  55 SE7       30.37S WCI  28
VIROQUA        CLOUDY    33  20  61 SE12      30.33F WCI  24
BOSCOBEL       CLOUDY    35  20  54 SE5       30.39S WCI  31
PRAIRIE DU CHI CLOUDY    38  20  49 SE6       30.35F WCI  33
PLATTEVILLE    CLOUDY    33  22  64 SE12      30.37F WCI  24
$$

WIZ056-057-062-063-064-067-068-230800-
SOUTH CENTRAL WISCONSIN

CITY           SKY/WX    TMP DP  RH WIND       PRES   REMARKS
REEDSBURG      CLOUDY    30  21  68 S6        30.40S WCI  24
BARABOO/DELLS  CLOUDY    28  20  72 S9        30.40S WCI  20
LONE ROCK      NOT AVBL
MINERAL POINT  CLOUDY    32  21  64 SE13      30.37F WCI  22
MADISON        CLOUDY    27  18  69 SE8       30.41F WCI  19
MIDDLETON      MOCLDY    29  21  72 SE6       30.42F WCI  23
WATERTOWN      CLOUDY    24  20  83 SE7       30.43F WCI  16
MONROE         CLOUDY    28  19  69 E9        30.39F WCI  20
JANESVILLE     CLOUDY    28  21  74 SE6       30.43F WCI  22
$$

WIZ051-052-058>065-066-070>072-230800-
SOUTHEAST WISCONSIN

CITY           SKY/WX    TMP DP  RH WIND       PRES   REMARKS
MILWAUKEE      CLOUDY    28  18  66 SE3       30.46F
WAUKESHA       CLOUDY    21  18  86 CALM      30.46S
MILWAUKEE/TIMM CLOUDY    27  18  69 CALM      30.47F
RACINE         CLOUDY    30  22  72 SE6       30.47F WCI  24
KENOSHA        CLEAR     23  20  88 E3        30.45F
FOND DU LAC    CLOUDY    26  18  71 SE10      30.42F WCI  16
SHEBOYGAN      CLEAR     25  19  78 SE5       30.45F WCI  19
WEST BEND      CLOUDY    21  21 100 CALM      30.45S
JUNEAU         CLOUDY    25  19  77 SE9       30.44S WCI  15
$$

LSZ147-162-230800-
LAKE SUPERIOR

STATION/POSITION TIME  TEMP    WIND        PRES    WAVE
                       AIR SEA DIR/SP/G            HT/PER
                 (UTC) (F)     (DEG/KT/KT) (MB)    (FT/S)
DEVILS ISLAND    0600   32     150/  6/  9 1027.9F
PORT WING        0640   33     140/  3/  9 1025.7F
SAXON HARBOR     0640   34     180/  6/ 11 1026.4S
$$

LMZ867-665-643>646-230800-
LAKE MICHIGAN

STATION/POSITION TIME  TEMP    WIND        PRES    WAVE
                       AIR SEA DIR/SP/G            HT/PER
                 (UTC) (F)     (DEG/KT/KT) (MB)    (FT/S)
CHAMBERS ISLAND  0640   25     150/  3/  6 1030.8F
NORTHPORT PIER   0640   25      CALM  /  2 1031.5F
SISTER BAY       0535   24     160/  6/  8   N/A
KEWAUNEE LAKESHO 0630   29     160/ 10/ 12 1031.1F
SHEBOYGAN LAKESH 0600   29     160/ 10/ 11 1032.9F
PORT WASHINGTON  0630   32     150/  9/ 12 1032.5F
MILWAUKEE LAKESH 0630   32     130/ 10/ 12   N/A
KENOSHA   LAKESH 0600   32     140/ 10/ 11 1031.5
$$

TC  - TEMPERATURE IN CELSIUS
VSB - VISIBILITY IN STATUTE MILES
WCI - WIND CHILL INDEX
HX  - HEAT INDEX




USA.gov is the U.S. government's official web portal to all federal, state and local government web resources and services.